Fort Myers, FL

11:30 AM EDT on April 29, 2017 (GMT -0400)
Page

Weather History for KFMY - March, 2014

Change the Weather History Date:

Sunday, March 16, 2014

  Actual Average Record
Temperature  
Mean Temperature 73 °F 70 °F  
Max Temperature 85 °F 80 °F 90 °F (1990)
Min Temperature 60 °F 59 °F 43 °F (1932)
Degree Days  
Heating Degree Days 0 1  
Month to date heating degree days 3 16  
Since 1 July heating degree days 172 276  
Cooling Degree Days 8 6  
Month to date cooling degree days 72 82  
Year to date cooling degree days 333 267  
Growing Degree Days 21 (Base 50)    
Moisture  
Dew Point 60 °F    
Average Humidity 68    
Maximum Humidity 90    
Minimum Humidity 47    
Precipitation  
Precipitation 0.00 in 0.10 in 0.52 in (1959)
Month to date precipitation 0.77 1.50  
Year to date precipitation 4.21 5.59  
Sea Level Pressure  
Sea Level Pressure 29.91 in    
Wind  
Wind Speed 9 mph (SSE)    
Max Wind Speed 21 mph    
Max Gust Speed 28 mph    
Visibility 10 miles    
Events      
T = Trace of Precipitation, MM = Missing Value Source: NWS Daily Summary

Daily Weather History Graph

Daily Weather History Graph

Search for Another Location

Airport or City:

Trip Planner

Search our weather history database for the weather conditions in past years. The results will help you decide how hot, cold, wet, or windy it might be!

Date:

Astronomy

Mar. 16, 2014 Rise Set
Actual Time 7:35 AM EDT 7:36 PM EDT
Civil Twilight 7:12 AM EDT 7:59 PM EDT
Nautical Twilight 6:45 AM EDT 8:26 PM EDT
Astronomical Twilight 6:18 AM EDT 8:53 PM EDT
Moon 7:48 PM EDT (3/16) 7:20 AM EDT (3/16)
Length of Visible Light 12h 47m
Length of Day
12h 01m
Full, 100% of the Moon is Illuminated
Mar 16
Full
Mar 16
Full
Mar 23
Last Quarter
Mar 30
New
Apr 7
First Quarter

Hourly Weather History & Observations

Time (EDT) Temp. Heat Index Dew Point Humidity Pressure Visibility Wind Dir Wind Speed Gust Speed Precip Events Conditions
12:53 AM 66.9 °F - 59.0 °F 76% 30.04 in 10.0 mi SE 4.6 mph - N/A   Clear
1:53 AM 66.0 °F - 59.0 °F 78% 30.02 in 10.0 mi SSE 3.5 mph - N/A   Clear
2:53 AM 63.0 °F - 57.9 °F 84% 30.01 in 10.0 mi East 3.5 mph - N/A   Clear
3:53 AM 62.1 °F - 57.9 °F 86% 30.00 in 10.0 mi Calm Calm - N/A   Clear
4:53 AM 62.1 °F - 57.9 °F 86% 29.98 in 10.0 mi East 3.5 mph - N/A   Clear
5:53 AM 60.1 °F - 57.9 °F 93% 29.98 in 10.0 mi Calm Calm - N/A   Clear
6:53 AM 60.1 °F - 57.9 °F 93% 29.98 in 10.0 mi ESE 4.6 mph - N/A   Clear
7:53 AM 60.1 °F - 57.9 °F 93% 29.98 in 10.0 mi ESE 5.8 mph - N/A   Clear
8:53 AM 66.0 °F - 61.0 °F 84% 29.99 in 10.0 mi SE 5.8 mph - N/A   Clear
9:53 AM 73.0 °F - 62.1 °F 68% 29.97 in 10.0 mi SSE 12.7 mph - N/A   Clear
10:53 AM 77.0 °F - 62.1 °F 60% 29.96 in 10.0 mi SSE 15.0 mph 23.0 mph N/A   Clear
11:53 AM 80.1 °F 81.1 °F 61.0 °F 52% 29.94 in 10.0 mi South 13.8 mph 20.7 mph N/A   Clear
12:53 PM 82.9 °F 83.3 °F 61.0 °F 47% 29.91 in 10.0 mi South 13.8 mph 19.6 mph N/A   Partly Cloudy
1:53 PM 82.9 °F 83.2 °F 60.1 °F 46% 29.90 in 10.0 mi SSW 15.0 mph 21.9 mph N/A   Clear
2:53 PM 82.9 °F 83.3 °F 61.0 °F 47% 29.86 in 10.0 mi SW 17.3 mph 24.2 mph N/A   Clear
3:53 PM 82.9 °F 83.7 °F 62.1 °F 49% 29.82 in 10.0 mi SSW 16.1 mph 24.2 mph N/A   Scattered Clouds
4:53 PM 82.0 °F 82.7 °F 61.0 °F 49% 29.81 in 10.0 mi SSW 17.3 mph 23.0 mph N/A   Scattered Clouds
5:53 PM 81.0 °F 81.7 °F 61.0 °F 50% 29.81 in 10.0 mi South 10.4 mph 20.7 mph N/A   Mostly Cloudy
6:53 PM 79.0 °F - 61.0 °F 54% 29.82 in 10.0 mi South 9.2 mph 18.4 mph N/A   Partly Cloudy
7:53 PM 77.0 °F - 62.1 °F 60% 29.83 in 10.0 mi South 9.2 mph - N/A   Clear
8:53 PM 75.0 °F - 62.1 °F 64% 29.82 in 10.0 mi SSE 6.9 mph - N/A   Clear
9:53 PM 73.9 °F - 63.0 °F 68% 29.82 in 10.0 mi SSE 9.2 mph - N/A   Clear
10:53 PM 73.0 °F - 62.1 °F 68% 29.84 in 10.0 mi SSE 9.2 mph - N/A   Clear
11:53 PM 72.0 °F - 62.1 °F 71% 29.84 in 10.0 mi SSE 8.1 mph - N/A   Clear